UAE179 OMDB-EPWA

Flight info

Callsign UAE179
Flight time 7h 9m
Altitude 35000
Route ANVIX L223 TARDI N629 BOTAM Y855 LAKLU/N0496F340 Q204 NALKI G652 TOKRA DCT ALROK DCT BOSOB/N0493F360 DCT ITRUX Y511 PMA Z712 WEJ L677 CVO L617 NOZ L551 ANTAR DCT RIGRO/N0482F380 DCT ATFIR N133 USALI DCT LOMOS DCT NEKUL DCT BUXLE DCT MEGIK DCT KEKED DCT ORTEB DCT KONZI DCT LOGDA
Aircraft B77W/H-SDE1E2E3FGHIJ2J3J4J5M1RWXY/LB1D1

Departure

Time 2026-04-24 07:22
Airport Dubai International Airport (OMDB)

Arrival

Time 2026-04-24 14:31
Airport Warsaw Chopin Airport (EPWA)
Time Latitude Longitude Altitude Speed Heading
2026-04-24 06:27 25.24360 55.36921 27 ft 0 kts 35°
2026-04-24 07:09 25.24360 55.36920 27 ft 1 kts 35°
2026-04-24 07:09 25.24344 55.36909 26 ft 4 kts 31°
2026-04-24 07:09 25.24320 55.36894 26 ft 4 kts 30°
2026-04-24 07:10 25.24305 55.36885 26 ft 3 kts 354°
2026-04-24 07:10 25.24283 55.36893 25 ft 4 kts 306°
2026-04-24 07:10 25.24271 55.36917 26 ft 2 kts 302°
2026-04-24 07:10 25.24268 55.36923 25 ft 0 kts 303°
2026-04-24 07:15 25.24275 55.36910 24 ft 5 kts 302°
2026-04-24 07:15 25.24299 55.36868 24 ft 7 kts 301°
2026-04-24 07:15 25.24324 55.36822 27 ft 7 kts 302°
2026-04-24 07:15 25.24350 55.36776 27 ft 7 kts 302°
2026-04-24 07:16 25.24392 55.36733 27 ft 10 kts 334°
2026-04-24 07:16 25.24459 55.36750 27 ft 12 kts 29°
2026-04-24 07:16 25.24538 55.36802 27 ft 15 kts 32°
2026-04-24 07:16 25.24631 55.36867 27 ft 17 kts 32°
2026-04-24 07:17 25.24737 55.36859 27 ft 17 kts 311°
2026-04-24 07:17 25.24778 55.36736 27 ft 17 kts 282°
2026-04-24 07:17 25.24819 55.36612 27 ft 17 kts 297°
2026-04-24 07:17 25.24878 55.36497 27 ft 17 kts 303°
2026-04-24 07:18 25.24942 55.36384 27 ft 17 kts 300°
2026-04-24 07:18 25.25004 55.36271 27 ft 17 kts 301°
2026-04-24 07:18 25.25066 55.36158 27 ft 17 kts 301°
2026-04-24 07:18 25.25129 55.36045 27 ft 17 kts 299°
2026-04-24 07:19 25.25192 55.35932 27 ft 17 kts 302°
2026-04-24 07:19 25.25255 55.35819 27 ft 17 kts 301°
2026-04-24 07:19 25.25313 55.35713 27 ft 11 kts 308°
2026-04-24 07:19 25.25384 55.35697 27 ft 11 kts 18°
2026-04-24 07:20 25.25453 55.35739 27 ft 11 kts 32°
2026-04-24 07:20 25.25520 55.35783 27 ft 11 kts 30°
2026-04-24 07:20 25.25581 55.35835 27 ft 11 kts 62°
2026-04-24 07:20 25.25572 55.35919 27 ft 13 kts 115°
2026-04-24 07:21 25.25464 55.36119 27 ft 52 kts 122°
2026-04-24 07:21 25.25147 55.36690 27 ft 120 kts 121°
2026-04-24 07:21 25.24613 55.37653 27 ft 172 kts 121°
2026-04-24 07:21 25.23945 55.38907 238 ft 194 kts 120°
2026-04-24 07:22 25.23227 55.40181 903 ft 197 kts 121°
2026-04-24 07:22 25.22476 55.41460 1623 ft 196 kts 119°
2026-04-24 07:22 25.21745 55.42774 2140 ft 212 kts 119°
2026-04-24 07:22 25.20933 55.44252 2563 ft 233 kts 120°
2026-04-24 07:23 25.20077 55.45796 3307 ft 237 kts 121°
2026-04-24 07:23 25.19206 55.47351 4130 ft 240 kts 121°
2026-04-24 07:23 25.18320 55.48926 4938 ft 243 kts 122°
2026-04-24 07:23 25.17421 55.50525 5706 ft 248 kts 124°
2026-04-24 07:24 25.16507 55.52151 6505 ft 250 kts 124°
2026-04-24 07:24 25.15583 55.53788 7246 ft 255 kts 124°
2026-04-24 07:24 25.14640 55.55462 7952 ft 259 kts 124°
2026-04-24 07:24 25.13683 55.57163 8689 ft 263 kts 124°
2026-04-24 07:25 25.12712 55.58886 9429 ft 266 kts 125°
2026-04-24 07:25 25.11768 55.60557 10118 ft 270 kts 125°
2026-04-24 07:25 25.10672 55.62243 10730 ft 274 kts 135°
2026-04-24 07:25 25.09301 55.63801 11110 ft 296 kts 139°
2026-04-24 07:26 25.07759 55.65434 11349 ft 326 kts 139°
2026-04-24 07:26 25.06050 55.67247 11564 ft 356 kts 137°
2026-04-24 07:26 25.04209 55.69231 11820 ft 383 kts 137°
2026-04-24 07:26 25.02262 55.71361 12603 ft 394 kts 136°
2026-04-24 07:27 25.00330 55.73492 13501 ft 401 kts 136°
2026-04-24 07:27 24.98350 55.75682 14422 ft 405 kts 136°
2026-04-24 07:27 24.96343 55.77897 15288 ft 411 kts 136°
2026-04-24 07:27 24.94260 55.80057 16019 ft 415 kts 144°
2026-04-24 07:28 24.91719 55.81561 16698 ft 417 kts 160°
2026-04-24 07:28 24.88979 55.82701 17435 ft 425 kts 160°
2026-04-24 07:28 24.86230 55.83937 18259 ft 427 kts 157°
2026-04-24 07:28 24.83691 55.85689 18822 ft 438 kts 138°
2026-04-24 07:29 24.82332 55.87393 19261 ft 439 kts 127°
2026-04-24 07:29 24.80584 55.90180 19866 ft 446 kts 126°
2026-04-24 07:29 24.78768 55.92972 20545 ft 451 kts 128°
2026-04-24 07:29 24.76663 55.95502 21103 ft 451 kts 144°
2026-04-24 07:30 24.73891 55.97092 21730 ft 452 kts 164°
2026-04-24 07:30 24.70860 55.97751 22493 ft 450 kts 178°
2026-04-24 07:30 24.67746 55.97614 23214 ft 448 kts 189°
2026-04-24 07:30 24.64636 55.97116 23714 ft 455 kts 191°
2026-04-24 07:31 24.61491 55.96547 24216 ft 460 kts 192°
2026-04-24 07:31 24.58318 55.95957 24785 ft 464 kts 192°
2026-04-24 07:31 24.55124 55.95374 25348 ft 468 kts 191°
2026-04-24 07:31 24.51895 55.94802 25912 ft 472 kts 191°
2026-04-24 07:32 24.48673 55.94248 26453 ft 476 kts 191°
2026-04-24 07:32 24.45526 55.93717 26941 ft 480 kts 191°
2026-04-24 07:32 24.42207 55.93166 27450 ft 485 kts 191°
2026-04-24 07:32 24.38850 55.92613 27974 ft 488 kts 191°
2026-04-24 07:33 24.35483 55.92059 28426 ft 492 kts 191°
2026-04-24 07:33 24.32079 55.91500 28766 ft 497 kts 191°
2026-04-24 07:33 24.28648 55.90936 29060 ft 500 kts 191°
2026-04-24 07:33 24.25198 55.90368 29377 ft 503 kts 191°
2026-04-24 07:34 24.21732 55.89798 29711 ft 505 kts 191°
2026-04-24 07:34 24.18259 55.89227 30031 ft 506 kts 191°
2026-04-24 07:34 24.14772 55.88654 30391 ft 505 kts 191°
2026-04-24 07:34 24.11304 55.88085 30819 ft 503 kts 191°
2026-04-24 07:35 24.07848 55.87518 31248 ft 501 kts 192°
2026-04-24 07:35 24.04411 55.86953 31649 ft 499 kts 192°
2026-04-24 07:35 24.00977 55.86390 32019 ft 498 kts 192°
2026-04-24 07:35 23.97615 55.85838 32363 ft 497 kts 192°
2026-04-24 07:36 23.94195 55.85277 32723 ft 496 kts 192°
2026-04-24 07:36 23.90780 55.84717 33079 ft 495 kts 192°
2026-04-24 07:36 23.87378 55.84159 33432 ft 494 kts 192°
2026-04-24 07:36 23.83980 55.83603 33770 ft 493 kts 192°
2026-04-24 07:37 23.80594 55.83049 34061 ft 492 kts 193°
2026-04-24 07:37 23.77203 55.82493 34263 ft 493 kts 193°
2026-04-24 07:37 23.73803 55.81936 34441 ft 495 kts 193°
2026-04-24 07:37 23.70394 55.81379 34635 ft 495 kts 193°
2026-04-24 07:38 23.66985 55.80822 34869 ft 496 kts 193°
2026-04-24 07:38 23.63576 55.80265 35091 ft 496 kts 193°
2026-04-24 07:38 23.60161 55.79708 35281 ft 496 kts 193°
2026-04-24 07:38 23.56743 55.79151 35478 ft 497 kts 194°
2026-04-24 07:39 23.53327 55.78594 35698 ft 496 kts 194°
2026-04-24 07:39 23.49911 55.78039 35846 ft 497 kts 194°
2026-04-24 07:39 23.43088 55.76929 35892 ft 493 kts 194°
2026-04-24 07:40 23.36384 55.75841 35889 ft 488 kts 194°
2026-04-24 07:40 23.29677 55.74751 35894 ft 487 kts 194°
2026-04-24 07:41 23.22981 55.73663 35876 ft 487 kts 194°
2026-04-24 07:41 23.16277 55.72574 35893 ft 488 kts 194°
2026-04-24 07:42 23.09542 55.71482 35898 ft 491 kts 194°
2026-04-24 07:42 23.02764 55.70385 35890 ft 493 kts 194°
2026-04-24 07:43 22.95972 55.69288 35886 ft 495 kts 194°
2026-04-24 07:43 22.89156 55.68189 35878 ft 497 kts 194°
2026-04-24 07:44 22.82314 55.67085 35884 ft 497 kts 194°
2026-04-24 07:44 22.75477 55.65985 35876 ft 497 kts 194°
2026-04-24 07:45 22.68647 55.64886 35857 ft 496 kts 194°
2026-04-24 07:45 22.61827 55.63789 35873 ft 495 kts 194°
2026-04-24 07:46 22.55018 55.62695 35868 ft 494 kts 194°
2026-04-24 07:46 22.48261 55.61611 35872 ft 494 kts 194°
2026-04-24 07:47 22.41464 55.60521 35855 ft 494 kts 195°
2026-04-24 07:47 22.34661 55.59431 35874 ft 494 kts 195°
2026-04-24 07:48 22.27843 55.58340 35873 ft 496 kts 195°
2026-04-24 07:48 22.21319 55.56497 35870 ft 472 kts 218°
2026-04-24 07:49 22.18776 55.54370 35864 ft 456 kts 234°
2026-04-24 07:49 22.16904 55.51668 35879 ft 446 kts 245°
2026-04-24 07:49 22.14657 55.45557 35839 ft 432 kts 267°
2026-04-24 07:50 22.14168 55.39125 35867 ft 432 kts 269°
2026-04-24 07:50 22.13714 55.32638 35860 ft 435 kts 269°
2026-04-24 07:51 22.13211 55.26116 35861 ft 437 kts 268°
2026-04-24 07:51 22.12675 55.19583 35855 ft 437 kts 268°
2026-04-24 07:52 22.12129 55.13063 35847 ft 435 kts 268°
2026-04-24 07:52 22.11583 55.06578 35853 ft 433 kts 268°
2026-04-24 07:53 22.11037 55.00128 35834 ft 431 kts 268°
2026-04-24 07:53 22.10501 54.93789 35847 ft 429 kts 268°
2026-04-24 07:54 22.09956 54.87386 35849 ft 428 kts 268°
2026-04-24 07:54 22.09410 54.80996 35849 ft 428 kts 268°
2026-04-24 07:55 22.08861 54.74598 35846 ft 429 kts 268°
2026-04-24 07:55 22.08308 54.68197 35859 ft 429 kts 268°
2026-04-24 07:56 22.07753 54.61783 35851 ft 430 kts 268°
2026-04-24 07:56 22.07193 54.55359 35852 ft 431 kts 268°
2026-04-24 07:57 22.06630 54.48929 35850 ft 431 kts 268°
2026-04-24 07:57 22.06065 54.42499 35854 ft 430 kts 268°
2026-04-24 07:58 22.05498 54.36078 35851 ft 430 kts 268°
2026-04-24 07:58 22.04932 54.29710 35846 ft 429 kts 268°
2026-04-24 07:59 22.04363 54.23316 35856 ft 428 kts 267°
2026-04-24 07:59 22.03792 54.16928 35853 ft 428 kts 267°
2026-04-24 08:00 22.03219 54.10555 35854 ft 427 kts 267°
2026-04-24 08:00 22.02644 54.04181 35856 ft 427 kts 267°
2026-04-24 08:01 22.02074 53.97894 35860 ft 427 kts 267°
2026-04-24 08:01 22.01495 53.91529 35852 ft 427 kts 267°
2026-04-24 08:02 22.00913 53.85164 35855 ft 427 kts 267°
2026-04-24 08:02 22.00328 53.78805 35857 ft 427 kts 267°
2026-04-24 08:03 21.99743 53.72450 35852 ft 427 kts 266°
2026-04-24 08:03 21.99153 53.66088 35857 ft 427 kts 266°
2026-04-24 08:04 21.98562 53.59729 35856 ft 427 kts 266°
2026-04-24 08:04 21.97967 53.53362 35853 ft 427 kts 266°
2026-04-24 08:05 21.97370 53.46992 35857 ft 428 kts 266°
2026-04-24 08:05 21.96769 53.40616 35854 ft 428 kts 266°
2026-04-24 08:06 21.96166 53.34237 35857 ft 428 kts 266°
2026-04-24 08:06 21.95560 53.27854 35858 ft 428 kts 266°
2026-04-24 08:07 21.94951 53.21470 35859 ft 429 kts 266°
2026-04-24 08:07 21.94339 53.15083 35859 ft 429 kts 266°
2026-04-24 08:08 21.93725 53.08695 35860 ft 429 kts 266°
2026-04-24 08:09 21.92806 52.99189 35861 ft 429 kts 266°
2026-04-24 08:09 21.92186 52.92801 35866 ft 429 kts 266°
2026-04-24 08:10 21.91563 52.86418 35863 ft 429 kts 266°
2026-04-24 08:10 21.90943 52.80077 35866 ft 429 kts 266°
2026-04-24 08:11 21.90387 52.73691 35867 ft 428 kts 270°
2026-04-24 08:11 21.90656 52.67312 35870 ft 426 kts 277°
2026-04-24 08:12 21.91685 52.61032 35873 ft 426 kts 281°
2026-04-24 08:12 21.92866 52.54776 35878 ft 427 kts 281°
2026-04-24 08:13 21.94041 52.48510 35867 ft 427 kts 281°
2026-04-24 08:13 21.95200 52.42236 35869 ft 427 kts 281°
2026-04-24 08:14 21.96350 52.35956 35868 ft 428 kts 281°
2026-04-24 08:14 21.97311 52.30689 35874 ft 428 kts 281°
2026-04-24 08:15 21.98448 52.24442 35877 ft 428 kts 281°
2026-04-24 08:15 21.99592 52.18148 35873 ft 428 kts 281°
2026-04-24 08:16 22.00734 52.11851 35871 ft 428 kts 281°
2026-04-24 08:16 22.01873 52.05552 35877 ft 428 kts 281°
2026-04-24 08:17 22.02999 51.99314 35890 ft 428 kts 281°
2026-04-24 08:17 22.04135 51.93011 35876 ft 428 kts 280°
2026-04-24 08:18 22.05267 51.86709 35878 ft 428 kts 280°
2026-04-24 08:18 22.06396 51.80414 35871 ft 428 kts 280°
2026-04-24 08:19 22.07522 51.74116 35877 ft 428 kts 280°
2026-04-24 08:19 22.08648 51.67811 35878 ft 429 kts 280°
2026-04-24 08:20 22.09772 51.61494 35878 ft 429 kts 280°
2026-04-24 08:20 22.10895 51.55171 35877 ft 430 kts 280°
2026-04-24 08:21 22.12018 51.48834 35883 ft 431 kts 280°
2026-04-24 08:21 22.13142 51.42481 35899 ft 432 kts 280°
2026-04-24 08:22 22.14266 51.36111 35887 ft 433 kts 280°
2026-04-24 08:22 22.15389 51.29728 35882 ft 433 kts 280°
2026-04-24 08:23 22.16510 51.23340 35886 ft 434 kts 280°
2026-04-24 08:23 22.17630 51.16947 35887 ft 434 kts 280°
2026-04-24 08:24 22.18747 51.10552 35885 ft 434 kts 280°
2026-04-24 08:24 22.19863 51.04153 35885 ft 434 kts 280°
2026-04-24 08:25 22.20958 50.97852 35887 ft 434 kts 280°
2026-04-24 08:25 22.22067 50.91458 35890 ft 433 kts 280°
2026-04-24 08:26 22.23174 50.85066 35898 ft 433 kts 279°
2026-04-24 08:26 22.24277 50.78674 35888 ft 433 kts 279°
2026-04-24 08:27 22.25379 50.72280 35890 ft 433 kts 279°
2026-04-24 08:27 22.26476 50.65892 35891 ft 433 kts 279°
2026-04-24 08:28 22.27571 50.59499 35889 ft 433 kts 280°
2026-04-24 08:28 22.28664 50.53107 35892 ft 433 kts 280°
2026-04-24 08:29 22.29754 50.46716 35887 ft 433 kts 279°
2026-04-24 08:29 22.30843 50.40316 35895 ft 433 kts 279°
2026-04-24 08:30 22.31928 50.33923 35889 ft 433 kts 279°
2026-04-24 08:30 22.33012 50.27527 35896 ft 433 kts 279°
2026-04-24 08:31 22.34092 50.21129 35897 ft 433 kts 279°
2026-04-24 08:31 22.35169 50.14731 35900 ft 433 kts 279°
2026-04-24 08:32 22.36244 50.08333 35896 ft 433 kts 279°
2026-04-24 08:32 22.37318 50.01926 35892 ft 433 kts 279°
2026-04-24 08:33 22.38374 49.95614 35894 ft 433 kts 279°
2026-04-24 08:33 22.39440 49.89219 35899 ft 432 kts 279°
2026-04-24 08:34 22.40504 49.82824 35896 ft 432 kts 279°
2026-04-24 08:34 22.41564 49.76437 35896 ft 432 kts 279°
2026-04-24 08:35 22.42620 49.70059 35899 ft 431 kts 279°
2026-04-24 08:35 22.43673 49.63684 35898 ft 430 kts 279°
2026-04-24 08:36 22.44714 49.57362 35896 ft 430 kts 279°
2026-04-24 08:36 22.45760 49.50996 35896 ft 430 kts 279°
2026-04-24 08:37 22.46802 49.44634 35901 ft 430 kts 279°
2026-04-24 08:37 22.47842 49.38271 35901 ft 430 kts 279°
2026-04-24 08:38 22.48880 49.31906 35897 ft 430 kts 279°
2026-04-24 08:38 22.49916 49.25536 35917 ft 430 kts 279°
2026-04-24 08:39 22.50949 49.19163 35902 ft 430 kts 279°
2026-04-24 08:39 22.51981 49.12788 35902 ft 430 kts 279°
2026-04-24 08:40 22.53010 49.06410 35897 ft 430 kts 278°
2026-04-24 08:40 22.54036 49.00033 35905 ft 430 kts 278°
2026-04-24 08:41 22.55046 48.93741 35903 ft 430 kts 278°
2026-04-24 08:41 22.56067 48.87368 35903 ft 430 kts 278°
2026-04-24 08:42 22.57085 48.80993 35905 ft 430 kts 278°
2026-04-24 08:42 22.58100 48.74623 35906 ft 430 kts 278°
2026-04-24 08:43 22.59112 48.68249 35915 ft 430 kts 278°
2026-04-24 08:43 22.60123 48.61869 35914 ft 430 kts 278°
2026-04-24 08:44 22.61131 48.55486 35908 ft 430 kts 278°
2026-04-24 08:44 22.62137 48.49107 35910 ft 430 kts 278°
2026-04-24 08:45 22.63140 48.42727 35910 ft 430 kts 278°
2026-04-24 08:45 22.64132 48.36398 35916 ft 429 kts 278°
2026-04-24 08:46 22.65128 48.30030 35914 ft 429 kts 278°
2026-04-24 08:46 22.66120 48.23667 35914 ft 428 kts 278°
2026-04-24 08:47 22.67109 48.17304 35917 ft 429 kts 278°
2026-04-24 08:47 22.68098 48.10933 35917 ft 429 kts 278°
2026-04-24 08:48 22.69081 48.04550 35917 ft 430 kts 277°
2026-04-24 08:48 22.69709 47.98172 35927 ft 430 kts 274°
2026-04-24 08:49 22.70227 47.91722 35920 ft 430 kts 274°
2026-04-24 08:49 22.70749 47.85262 35924 ft 431 kts 274°
2026-04-24 08:50 22.71280 47.78799 35927 ft 431 kts 274°
2026-04-24 08:50 22.71811 47.72347 35929 ft 429 kts 274°
2026-04-24 08:51 22.72338 47.65916 35926 ft 428 kts 274°
2026-04-24 08:51 22.72860 47.59501 35927 ft 427 kts 274°
2026-04-24 08:52 22.73379 47.53100 35940 ft 427 kts 274°
2026-04-24 08:52 22.73895 47.46700 35940 ft 426 kts 274°
2026-04-24 08:53 22.74408 47.40304 35932 ft 426 kts 274°
2026-04-24 08:53 22.74918 47.33909 35935 ft 427 kts 274°
2026-04-24 08:54 22.75427 47.27495 35942 ft 428 kts 274°
2026-04-24 08:54 22.75936 47.21065 35942 ft 429 kts 274°
2026-04-24 08:55 22.76445 47.14622 35938 ft 430 kts 274°
2026-04-24 08:55 22.76962 47.08160 35948 ft 431 kts 274°
2026-04-24 08:56 22.77480 47.01681 35946 ft 432 kts 273°
2026-04-24 08:56 22.77989 46.95268 35950 ft 433 kts 273°
2026-04-24 08:57 22.78502 46.88770 35946 ft 433 kts 273°
2026-04-24 08:57 22.79012 46.82273 35950 ft 433 kts 273°
2026-04-24 08:58 22.79518 46.75781 35948 ft 432 kts 273°
2026-04-24 08:58 22.80022 46.69289 35947 ft 432 kts 273°
2026-04-24 08:59 22.80519 46.62850 35959 ft 432 kts 273°
2026-04-24 08:59 22.81017 46.56372 35954 ft 431 kts 273°
2026-04-24 09:00 22.81512 46.49895 35961 ft 431 kts 273°
2026-04-24 09:00 22.82004 46.43419 35963 ft 431 kts 272°
2026-04-24 09:01 22.82493 46.36940 35965 ft 431 kts 272°
2026-04-24 09:01 22.82973 46.30452 35952 ft 432 kts 272°
2026-04-24 09:02 22.83372 46.25011 35955 ft 432 kts 272°
2026-04-24 09:02 22.83845 46.18561 35952 ft 432 kts 272°
2026-04-24 09:03 22.84313 46.12142 35940 ft 433 kts 272°
2026-04-24 09:03 22.84791 46.05542 35942 ft 434 kts 272°
2026-04-24 09:04 22.85256 45.99089 35936 ft 434 kts 272°
2026-04-24 09:04 22.85723 45.92570 35950 ft 434 kts 272°
2026-04-24 09:05 22.86187 45.86056 35940 ft 434 kts 272°
2026-04-24 09:05 22.86649 45.79537 35932 ft 433 kts 272°
2026-04-24 09:06 22.87108 45.73029 35944 ft 432 kts 272°
2026-04-24 09:06 22.87563 45.66535 35934 ft 431 kts 272°
2026-04-24 09:07 22.88013 45.60054 35935 ft 431 kts 272°
2026-04-24 09:07 22.88683 45.50361 35943 ft 429 kts 272°
2026-04-24 09:08 22.89125 45.43912 35939 ft 428 kts 272°
2026-04-24 09:08 22.89564 45.37475 35961 ft 428 kts 272°
2026-04-24 09:09 22.90000 45.31049 35951 ft 427 kts 271°
2026-04-24 09:09 22.90429 45.24666 35942 ft 427 kts 271°
2026-04-24 09:10 22.90859 45.18246 35942 ft 427 kts 271°
2026-04-24 09:10 22.91287 45.11832 35945 ft 426 kts 271°
2026-04-24 09:11 22.91711 45.05417 35946 ft 426 kts 271°
2026-04-24 09:11 22.92129 44.99071 35934 ft 427 kts 271°
2026-04-24 09:12 22.92551 44.92643 35944 ft 428 kts 271°
2026-04-24 09:12 22.92971 44.86199 35946 ft 429 kts 271°
2026-04-24 09:13 22.93389 44.79741 35946 ft 429 kts 271°
2026-04-24 09:13 22.93805 44.73284 35946 ft 430 kts 271°
2026-04-24 09:14 22.94556 44.66831 35956 ft 433 kts 278°
2026-04-24 09:14 22.96179 44.60516 35953 ft 436 kts 284°
2026-04-24 09:15 22.98115 44.54338 35944 ft 437 kts 284°
2026-04-24 09:15 23.00083 44.48048 35946 ft 437 kts 284°
2026-04-24 09:16 23.02020 44.41791 35945 ft 437 kts 284°
2026-04-24 09:16 23.03952 44.35517 35940 ft 439 kts 284°
2026-04-24 09:17 23.05886 44.29223 35946 ft 440 kts 284°
2026-04-24 09:17 23.07808 44.22956 35943 ft 441 kts 284°
2026-04-24 09:18 23.09748 44.16625 35940 ft 442 kts 284°
2026-04-24 09:18 23.11689 44.10278 35939 ft 443 kts 284°
2026-04-24 09:19 23.13629 44.03923 35937 ft 443 kts 284°
2026-04-24 09:19 23.15547 43.97633 35944 ft 443 kts 283°
2026-04-24 09:20 23.17483 43.91277 35947 ft 443 kts 283°
2026-04-24 09:20 23.19415 43.84918 35944 ft 442 kts 283°
2026-04-24 09:21 23.21340 43.78575 35946 ft 442 kts 283°
2026-04-24 09:21 23.23260 43.72232 35951 ft 441 kts 283°
2026-04-24 09:22 23.25176 43.65897 35957 ft 441 kts 283°
2026-04-24 09:22 23.27090 43.59559 35960 ft 441 kts 283°
2026-04-24 09:23 23.29000 43.53219 35957 ft 441 kts 283°
2026-04-24 09:23 23.30906 43.46876 35964 ft 441 kts 283°
2026-04-24 09:24 23.32809 43.40529 35975 ft 441 kts 283°
2026-04-24 09:24 23.34709 43.34183 35971 ft 441 kts 283°
2026-04-24 09:25 23.36604 43.27842 35971 ft 441 kts 283°
2026-04-24 09:25 23.38498 43.21497 35979 ft 440 kts 283°
2026-04-24 09:26 23.40372 43.15206 35971 ft 439 kts 283°
2026-04-24 09:26 23.42249 43.08881 35983 ft 439 kts 282°
2026-04-24 09:27 23.44115 43.02558 35973 ft 438 kts 282°
2026-04-24 09:27 23.45956 42.96312 35978 ft 438 kts 282°
2026-04-24 09:28 23.47815 42.89998 35973 ft 438 kts 282°
2026-04-24 09:28 23.49670 42.83688 35971 ft 437 kts 282°
2026-04-24 09:29 23.51521 42.77382 35972 ft 437 kts 282°
2026-04-24 09:29 23.53375 42.71076 35971 ft 437 kts 282°
2026-04-24 09:30 23.55240 42.64769 35978 ft 437 kts 282°
2026-04-24 09:30 23.57103 42.58453 35968 ft 438 kts 282°
2026-04-24 09:31 23.58962 42.52138 35962 ft 437 kts 282°
2026-04-24 09:31 23.60816 42.45825 35962 ft 437 kts 282°
2026-04-24 09:32 23.62666 42.39517 35968 ft 437 kts 282°
2026-04-24 09:32 23.64512 42.33209 35958 ft 436 kts 282°
2026-04-24 09:33 23.66338 42.26956 35947 ft 435 kts 282°
2026-04-24 09:33 23.68154 42.20660 35951 ft 435 kts 282°
2026-04-24 09:34 23.69962 42.14366 35959 ft 435 kts 282°
2026-04-24 09:34 23.71769 42.08075 35947 ft 435 kts 282°
2026-04-24 09:35 23.73575 42.01784 35939 ft 434 kts 282°
2026-04-24 09:35 23.75363 41.95570 35950 ft 434 kts 282°
2026-04-24 09:36 23.77193 41.89289 35940 ft 434 kts 282°
2026-04-24 09:36 23.79021 41.83002 35938 ft 434 kts 282°
2026-04-24 09:37 23.80842 41.76713 35941 ft 434 kts 282°
2026-04-24 09:37 23.82653 41.70419 35932 ft 434 kts 282°
2026-04-24 09:38 23.84459 41.64125 35937 ft 434 kts 282°
2026-04-24 09:38 23.86264 41.57828 35943 ft 434 kts 282°
2026-04-24 09:39 23.88064 41.51533 35937 ft 434 kts 282°
2026-04-24 09:39 23.89857 41.45242 35929 ft 433 kts 282°
2026-04-24 09:40 23.91646 41.38960 35931 ft 433 kts 282°
2026-04-24 09:40 23.93430 41.32682 35946 ft 432 kts 282°
2026-04-24 09:41 23.95211 41.26403 35931 ft 432 kts 282°
2026-04-24 09:41 23.96988 41.20124 35928 ft 432 kts 282°
2026-04-24 09:42 23.98749 41.13893 35930 ft 432 kts 282°
2026-04-24 09:42 24.00518 41.07622 35935 ft 432 kts 282°
2026-04-24 09:43 24.02286 41.01343 35930 ft 432 kts 282°
2026-04-24 09:43 24.04036 40.95121 35921 ft 432 kts 282°
2026-04-24 09:44 24.05798 40.88838 35943 ft 432 kts 282°
2026-04-24 09:44 24.07560 40.82540 35936 ft 433 kts 282°
2026-04-24 09:45 24.09321 40.76234 35933 ft 434 kts 282°
2026-04-24 09:45 24.11083 40.69917 35932 ft 434 kts 282°
2026-04-24 09:46 24.12842 40.63596 35932 ft 434 kts 282°
2026-04-24 09:46 24.14189 40.58751 35931 ft 435 kts 282°
2026-04-24 09:47 24.15842 40.52952 35928 ft 437 kts 284°
2026-04-24 09:47 24.18363 40.46855 35945 ft 442 kts 291°
2026-04-24 09:48 24.21253 40.40898 35933 ft 443 kts 291°
2026-04-24 09:48 24.24125 40.34937 35928 ft 442 kts 291°
2026-04-24 09:49 24.26981 40.28968 35931 ft 442 kts 291°
2026-04-24 09:49 24.29806 40.23042 35941 ft 441 kts 291°
2026-04-24 09:50 24.32647 40.17075 35932 ft 441 kts 291°
2026-04-24 09:50 24.35480 40.11117 35935 ft 440 kts 291°
2026-04-24 09:51 24.38310 40.05160 35939 ft 440 kts 291°
2026-04-24 09:51 24.41103 39.99274 35945 ft 439 kts 291°
2026-04-24 09:52 24.43917 39.93335 35942 ft 438 kts 291°
2026-04-24 09:52 24.46246 39.88413 35942 ft 437 kts 291°
2026-04-24 09:53 24.49040 39.82500 35956 ft 436 kts 290°
2026-04-24 09:53 24.51833 39.76586 35949 ft 436 kts 290°
2026-04-24 09:54 24.55296 39.71025 35940 ft 449 kts 303°
2026-04-24 09:54 24.59859 39.66236 35934 ft 462 kts 314°
2026-04-24 09:55 24.65087 39.62084 35955 ft 464 kts 316°
2026-04-24 09:55 24.70353 39.57981 35952 ft 464 kts 315°
2026-04-24 09:56 24.75588 39.53841 35961 ft 464 kts 315°
2026-04-24 09:56 24.80819 39.49662 35959 ft 465 kts 315°
2026-04-24 09:57 24.86060 39.45461 35971 ft 467 kts 315°
2026-04-24 09:57 24.91319 39.41244 35962 ft 468 kts 315°
2026-04-24 09:58 24.96587 39.37016 35943 ft 469 kts 315°
2026-04-24 09:58 25.01831 39.32806 35958 ft 470 kts 314°
2026-04-24 09:59 25.07115 39.28558 35945 ft 470 kts 314°
2026-04-24 09:59 25.12403 39.24301 35938 ft 470 kts 314°
2026-04-24 10:00 25.17678 39.20049 35935 ft 469 kts 314°
2026-04-24 10:00 25.22386 39.15265 35938 ft 454 kts 303°
2026-04-24 10:01 25.26168 39.09798 35919 ft 444 kts 295°
2026-04-24 10:01 25.29501 39.04061 35915 ft 444 kts 294°
2026-04-24 10:02 25.32795 38.98354 35910 ft 446 kts 294°
2026-04-24 10:02 25.36151 38.92578 35889 ft 447 kts 294°
2026-04-24 10:03 25.39526 38.86795 35906 ft 448 kts 294°
2026-04-24 10:03 25.42904 38.81003 35887 ft 448 kts 294°
2026-04-24 10:04 25.46282 38.75206 35865 ft 448 kts 294°
2026-04-24 10:04 25.49647 38.69423 35866 ft 447 kts 294°
2026-04-24 10:05 25.53003 38.63649 35869 ft 445 kts 294°
2026-04-24 10:05 25.56350 38.57879 35858 ft 445 kts 294°
2026-04-24 10:06 25.61356 38.49237 35861 ft 444 kts 294°
2026-04-24 10:07 25.64667 38.43512 35847 ft 444 kts 294°
2026-04-24 10:07 25.67995 38.37752 35884 ft 444 kts 294°
2026-04-24 10:08 25.71327 38.31975 35862 ft 445 kts 294°
2026-04-24 10:08 25.74662 38.26188 35851 ft 445 kts 294°
2026-04-24 10:09 25.77992 38.20402 35845 ft 445 kts 294°
2026-04-24 10:09 25.81324 38.14606 35825 ft 445 kts 294°
2026-04-24 10:10 25.84642 38.08831 35864 ft 444 kts 293°
2026-04-24 10:10 25.87971 38.03019 35853 ft 447 kts 293°
2026-04-24 10:11 25.91279 37.97240 35866 ft 449 kts 293°
2026-04-24 10:11 25.94641 37.91364 35867 ft 452 kts 294°
2026-04-24 10:12 25.97988 37.85449 35868 ft 449 kts 291°
2026-04-24 10:12 26.00380 37.79186 35896 ft 436 kts 280°
2026-04-24 10:13 26.01722 37.72701 35899 ft 426 kts 272°
2026-04-24 10:13 26.02567 37.66180 35905 ft 426 kts 272°
2026-04-24 10:14 26.03430 37.59655 35880 ft 426 kts 272°
2026-04-24 10:14 26.04314 37.53146 35879 ft 425 kts 272°
2026-04-24 10:15 26.05191 37.46662 35904 ft 423 kts 272°
2026-04-24 10:15 26.06053 37.40187 35872 ft 423 kts 272°
2026-04-24 10:16 26.06910 37.33721 35871 ft 422 kts 272°
2026-04-24 10:16 26.07762 37.27265 35855 ft 421 kts 272°
2026-04-24 10:17 26.08611 37.20829 35863 ft 420 kts 271°
2026-04-24 10:17 26.09455 37.14405 35855 ft 419 kts 271°
2026-04-24 10:18 26.10295 37.07996 35849 ft 417 kts 271°
2026-04-24 10:18 26.11126 37.01609 35848 ft 417 kts 271°
2026-04-24 10:19 26.11946 36.95288 35849 ft 418 kts 271°
2026-04-24 10:19 26.12776 36.88878 35814 ft 419 kts 271°
2026-04-24 10:20 26.13605 36.82456 35828 ft 420 kts 271°
2026-04-24 10:20 26.14427 36.76066 35831 ft 421 kts 271°
2026-04-24 10:21 26.15253 36.69614 35835 ft 421 kts 271°
2026-04-24 10:21 26.16078 36.63161 35818 ft 421 kts 271°
2026-04-24 10:22 26.16899 36.56714 35818 ft 420 kts 271°
2026-04-24 10:22 26.18408 36.50384 35811 ft 434 kts 286°
2026-04-24 10:23 26.21527 36.44488 35801 ft 454 kts 300°
2026-04-24 10:23 26.25923 36.39321 35803 ft 462 kts 305°
2026-04-24 10:24 26.30469 36.34249 35823 ft 463 kts 304°
2026-04-24 10:24 26.34978 36.29137 35817 ft 462 kts 304°
2026-04-24 10:25 26.39448 36.23992 35828 ft 461 kts 305°
2026-04-24 10:25 26.43901 36.18840 35819 ft 461 kts 305°
2026-04-24 10:26 26.48347 36.13692 35823 ft 460 kts 305°
2026-04-24 10:26 26.52787 36.08547 35820 ft 460 kts 305°
2026-04-24 10:27 26.57223 36.03402 35818 ft 460 kts 305°
2026-04-24 10:27 26.61574 35.98350 35825 ft 459 kts 304°
2026-04-24 10:28 26.66000 35.93203 35846 ft 459 kts 305°
2026-04-24 10:28 26.70436 35.88038 35828 ft 461 kts 306°
2026-04-24 10:29 26.74885 35.82852 35829 ft 463 kts 306°
2026-04-24 10:29 26.79352 35.77641 35827 ft 465 kts 306°
2026-04-24 10:30 26.83834 35.72405 35834 ft 467 kts 306°
2026-04-24 10:30 26.88331 35.67146 35835 ft 468 kts 306°
2026-04-24 10:31 26.92844 35.61862 35830 ft 469 kts 306°
2026-04-24 10:31 26.97357 35.56571 35829 ft 470 kts 306°
2026-04-24 10:32 27.01869 35.51275 35828 ft 470 kts 306°
2026-04-24 10:32 27.06382 35.45970 35829 ft 470 kts 306°
2026-04-24 10:33 27.10893 35.40661 35825 ft 470 kts 306°
2026-04-24 10:33 27.15397 35.35355 35824 ft 469 kts 305°
2026-04-24 10:34 27.19895 35.30047 35832 ft 469 kts 305°
2026-04-24 10:34 27.24384 35.24744 35831 ft 468 kts 305°
2026-04-24 10:35 27.28874 35.19432 35825 ft 469 kts 305°
2026-04-24 10:35 27.33372 35.14104 35822 ft 470 kts 305°
2026-04-24 10:36 27.37847 35.08797 35820 ft 471 kts 305°
2026-04-24 10:36 27.42359 35.03440 35823 ft 472 kts 305°
2026-04-24 10:37 27.46823 34.98132 35832 ft 473 kts 305°
2026-04-24 10:37 27.51347 34.92762 35812 ft 473 kts 307°
2026-04-24 10:38 27.56117 34.87618 35807 ft 475 kts 309°
2026-04-24 10:38 27.60960 34.82563 35807 ft 474 kts 309°
2026-04-24 10:39 27.65780 34.77500 35801 ft 473 kts 309°
2026-04-24 10:39 27.70567 34.72432 35826 ft 472 kts 309°
2026-04-24 10:40 27.75344 34.67359 35814 ft 471 kts 309°
2026-04-24 10:40 27.80115 34.62288 35809 ft 471 kts 309°
2026-04-24 10:41 27.84076 34.58075 35815 ft 470 kts 309°
2026-04-24 10:41 27.88836 34.53005 35823 ft 470 kts 309°
2026-04-24 10:42 27.94366 34.47106 35846 ft 470 kts 309°
2026-04-24 10:42 27.98351 34.42851 35836 ft 470 kts 309°
2026-04-24 10:43 28.02710 34.37436 35835 ft 463 kts 302°
2026-04-24 10:43 28.06760 34.31770 35832 ft 463 kts 302°
2026-04-24 10:44 28.10820 34.26083 35830 ft 465 kts 302°
2026-04-24 10:44 28.14905 34.20403 35862 ft 466 kts 302°
2026-04-24 10:45 28.19010 34.14709 35844 ft 466 kts 303°
2026-04-24 10:45 28.23115 34.09011 35855 ft 467 kts 303°
2026-04-24 10:46 28.27219 34.03305 35857 ft 467 kts 303°
2026-04-24 10:46 28.31292 33.97629 35853 ft 468 kts 302°
2026-04-24 10:47 28.35393 33.91898 35853 ft 468 kts 303°
2026-04-24 10:47 28.39496 33.86166 35851 ft 468 kts 303°
2026-04-24 10:48 28.43567 33.80474 35830 ft 467 kts 303°
2026-04-24 10:48 28.47650 33.74755 35840 ft 465 kts 303°
2026-04-24 10:49 28.51711 33.69057 35851 ft 464 kts 303°
2026-04-24 10:49 28.55779 33.63336 35836 ft 467 kts 304°
2026-04-24 10:50 28.59868 33.57578 35845 ft 469 kts 303°
2026-04-24 10:50 28.63975 33.51787 35841 ft 471 kts 303°
2026-04-24 10:51 28.68104 33.45967 35841 ft 473 kts 304°
2026-04-24 10:51 28.72240 33.40136 35837 ft 474 kts 304°
2026-04-24 10:52 28.76377 33.34292 35834 ft 473 kts 303°
2026-04-24 10:52 28.80505 33.28451 35840 ft 473 kts 303°
2026-04-24 10:53 28.84623 33.22615 35834 ft 472 kts 303°
2026-04-24 10:53 28.88737 33.16777 35833 ft 471 kts 303°
2026-04-24 10:54 28.92834 33.10954 35840 ft 470 kts 304°
2026-04-24 10:54 28.96924 33.05133 35834 ft 470 kts 304°
2026-04-24 10:55 29.00969 32.99369 35837 ft 469 kts 304°
2026-04-24 10:55 29.05048 32.93547 35841 ft 469 kts 304°
2026-04-24 10:56 29.09121 32.87726 35855 ft 469 kts 304°
2026-04-24 10:56 29.13196 32.81893 35848 ft 470 kts 304°
2026-04-24 10:57 29.17272 32.76051 35846 ft 470 kts 304°
2026-04-24 10:57 29.21319 32.70242 35858 ft 470 kts 304°
2026-04-24 10:58 29.25389 32.64393 35859 ft 470 kts 304°
2026-04-24 10:58 29.29456 32.58535 35876 ft 470 kts 304°
2026-04-24 10:59 29.33498 32.52653 35870 ft 470 kts 303°
2026-04-24 10:59 29.37528 32.46765 35881 ft 469 kts 303°
2026-04-24 11:00 29.41558 32.40872 35877 ft 469 kts 303°
2026-04-24 11:00 29.45581 32.34987 35888 ft 469 kts 303°
2026-04-24 11:01 29.49600 32.29099 35901 ft 468 kts 303°
2026-04-24 11:01 29.53610 32.23217 35896 ft 467 kts 303°
2026-04-24 11:02 29.57608 32.17344 35898 ft 466 kts 303°
2026-04-24 11:02 29.61595 32.11476 35899 ft 466 kts 303°
2026-04-24 11:03 29.65579 32.05606 35915 ft 466 kts 303°
2026-04-24 11:03 29.69520 31.99789 35903 ft 467 kts 303°
2026-04-24 11:04 29.73512 31.93889 35900 ft 468 kts 303°
2026-04-24 11:04 29.77508 31.87976 35909 ft 468 kts 303°
2026-04-24 11:05 29.81441 31.82003 35900 ft 468 kts 302°
2026-04-24 11:05 29.85291 31.75974 35904 ft 467 kts 302°
2026-04-24 11:06 29.89151 31.69957 35895 ft 466 kts 302°
2026-04-24 11:06 29.93006 31.63965 35901 ft 465 kts 302°
2026-04-24 11:07 29.98790 31.54999 35859 ft 464 kts 302°
2026-04-24 11:07 30.02632 31.49030 35866 ft 464 kts 302°
2026-04-24 11:08 30.06485 31.43033 35865 ft 465 kts 302°
2026-04-24 11:08 30.10595 31.37212 35858 ft 472 kts 310°
2026-04-24 11:09 30.15416 31.32014 35875 ft 475 kts 313°
2026-04-24 11:09 30.20305 31.26858 35864 ft 476 kts 312°
2026-04-24 11:10 30.25183 31.21662 35864 ft 477 kts 311°
2026-04-24 11:10 30.30041 31.16442 35862 ft 477 kts 311°
2026-04-24 11:11 30.34887 31.11218 35856 ft 476 kts 311°
2026-04-24 11:11 30.39726 31.05995 35856 ft 475 kts 311°
2026-04-24 11:12 30.44523 31.00813 35861 ft 474 kts 311°
2026-04-24 11:12 30.49293 30.95652 35898 ft 473 kts 311°
2026-04-24 11:13 30.54097 30.90447 35875 ft 472 kts 311°
2026-04-24 11:13 30.58881 30.85258 35849 ft 470 kts 311°
2026-04-24 11:14 30.63642 30.80084 35863 ft 468 kts 311°
2026-04-24 11:14 30.68389 30.74919 35863 ft 467 kts 311°
2026-04-24 11:15 30.73124 30.69758 35872 ft 467 kts 311°
2026-04-24 11:15 30.77858 30.64592 35869 ft 467 kts 311°
2026-04-24 11:16 30.82594 30.59416 35875 ft 467 kts 311°
2026-04-24 11:16 30.87336 30.54226 35870 ft 468 kts 310°
2026-04-24 11:17 30.92082 30.49024 35872 ft 469 kts 310°
2026-04-24 11:17 30.96833 30.43810 35890 ft 469 kts 310°
2026-04-24 11:18 31.01578 30.38595 35890 ft 470 kts 310°
2026-04-24 11:18 31.06288 30.33326 35878 ft 466 kts 306°
2026-04-24 11:19 31.09841 30.27172 35895 ft 453 kts 291°
2026-04-24 11:19 31.11999 30.20358 35892 ft 446 kts 282°
2026-04-24 11:20 31.13817 30.13427 35893 ft 447 kts 282°
2026-04-24 11:20 31.15689 30.06506 35901 ft 448 kts 283°
2026-04-24 11:21 31.17633 29.99690 35903 ft 449 kts 289°
2026-04-24 11:21 31.19267 29.96541 35911 ft 460 kts 302°
2026-04-24 11:21 31.21451 29.93775 35918 ft 468 kts 312°
2026-04-24 11:22 31.24108 29.91520 35901 ft 478 kts 324°
2026-04-24 11:22 31.27041 29.89679 35929 ft 480 kts 326°
2026-04-24 11:22 31.32995 29.86117 35918 ft 481 kts 326°
2026-04-24 11:23 31.38944 29.82502 35942 ft 482 kts 326°
2026-04-24 11:23 31.44862 29.78819 35916 ft 481 kts 325°
2026-04-24 11:24 31.50759 29.75114 35912 ft 480 kts 325°
2026-04-24 11:24 31.56601 29.71437 35926 ft 479 kts 325°
2026-04-24 11:25 31.62473 29.67739 35917 ft 479 kts 325°
2026-04-24 11:25 31.68334 29.64046 35920 ft 478 kts 325°
2026-04-24 11:26 31.74185 29.60353 35922 ft 477 kts 325°
2026-04-24 11:26 31.80028 29.56659 35923 ft 477 kts 325°
2026-04-24 11:27 31.85878 29.52955 35936 ft 478 kts 326°
2026-04-24 11:27 31.91732 29.49243 35924 ft 478 kts 326°
2026-04-24 11:28 31.96596 29.46155 35920 ft 478 kts 326°
2026-04-24 11:28 32.03440 29.41802 35924 ft 479 kts 326°
2026-04-24 11:29 32.08309 29.38690 35924 ft 479 kts 326°
2026-04-24 11:29 32.14162 29.34941 35933 ft 479 kts 326°
2026-04-24 11:30 32.20034 29.31178 35925 ft 480 kts 326°
2026-04-24 11:30 32.25906 29.27415 35928 ft 480 kts 326°
2026-04-24 11:31 32.31782 29.23651 35936 ft 481 kts 326°
2026-04-24 11:31 32.37664 29.19876 35922 ft 481 kts 326°
2026-04-24 11:32 32.43549 29.16092 35929 ft 481 kts 326°
2026-04-24 11:32 32.49434 29.12302 35928 ft 481 kts 326°
2026-04-24 11:33 32.55316 29.08508 35922 ft 482 kts 326°
2026-04-24 11:33 32.61158 29.04735 35924 ft 481 kts 326°
2026-04-24 11:34 32.67039 29.00930 35921 ft 481 kts 326°
2026-04-24 11:34 32.72867 28.97154 35937 ft 481 kts 326°
2026-04-24 11:35 32.78742 28.93341 35938 ft 481 kts 326°
2026-04-24 11:35 32.84611 28.89527 35925 ft 481 kts 326°
2026-04-24 11:36 32.90475 28.85711 35928 ft 480 kts 326°
2026-04-24 11:36 32.96327 28.81896 35947 ft 479 kts 326°
2026-04-24 11:37 33.02168 28.78083 35940 ft 479 kts 326°
2026-04-24 11:37 33.08006 28.74266 35931 ft 479 kts 326°
2026-04-24 11:38 33.13845 28.70441 35939 ft 479 kts 326°
2026-04-24 11:38 33.19680 28.66614 35931 ft 479 kts 325°
2026-04-24 11:39 33.25513 28.62783 35954 ft 479 kts 325°
2026-04-24 11:39 33.31313 28.58967 35943 ft 479 kts 325°
2026-04-24 11:40 33.37146 28.55124 35934 ft 479 kts 325°
2026-04-24 11:40 33.42982 28.51273 35939 ft 479 kts 325°
2026-04-24 11:41 33.48823 28.47412 35942 ft 479 kts 325°
2026-04-24 11:41 33.54651 28.43554 35957 ft 479 kts 325°
2026-04-24 11:42 33.60482 28.39688 35945 ft 479 kts 325°
2026-04-24 11:42 33.66318 28.35813 35950 ft 479 kts 324°
2026-04-24 11:43 33.72151 28.31932 35940 ft 479 kts 324°
2026-04-24 11:43 33.77989 28.28043 35945 ft 480 kts 324°
2026-04-24 11:44 33.83877 28.24236 35951 ft 482 kts 326°
2026-04-24 11:44 33.89904 28.20661 35944 ft 483 kts 327°
2026-04-24 11:45 33.95944 28.17108 35943 ft 483 kts 327°
2026-04-24 11:45 34.01934 28.13535 35946 ft 483 kts 327°
2026-04-24 11:46 34.07940 28.09918 35971 ft 483 kts 327°
2026-04-24 11:46 34.13957 28.06281 35968 ft 483 kts 327°
2026-04-24 11:47 34.19973 28.02641 35953 ft 483 kts 326°
2026-04-24 11:47 34.25930 27.99032 35943 ft 483 kts 326°
2026-04-24 11:48 34.31935 27.95390 35948 ft 483 kts 326°
2026-04-24 11:48 34.37938 27.91742 35956 ft 483 kts 326°
2026-04-24 11:49 34.43939 27.88089 35946 ft 483 kts 326°
2026-04-24 11:49 34.49937 27.84433 35948 ft 482 kts 326°
2026-04-24 11:50 34.55889 27.80799 35952 ft 482 kts 326°
2026-04-24 11:50 34.61882 27.77133 35963 ft 482 kts 326°
2026-04-24 11:51 34.67872 27.73464 35958 ft 482 kts 326°
2026-04-24 11:51 34.73860 27.69789 35952 ft 482 kts 326°
2026-04-24 11:52 34.79847 27.66110 35957 ft 482 kts 326°
2026-04-24 11:52 34.85830 27.62426 35958 ft 482 kts 326°
2026-04-24 11:53 34.91819 27.58733 35965 ft 482 kts 326°
2026-04-24 11:53 34.97801 27.55039 35953 ft 482 kts 326°
2026-04-24 11:54 35.03777 27.51342 35955 ft 482 kts 326°
2026-04-24 11:54 35.09752 27.47640 35957 ft 481 kts 326°
2026-04-24 11:55 35.15727 27.43930 35970 ft 482 kts 326°
2026-04-24 11:55 35.21712 27.40209 35970 ft 482 kts 326°
2026-04-24 11:56 35.27694 27.36484 35947 ft 482 kts 326°
2026-04-24 11:56 35.33672 27.32755 35947 ft 482 kts 326°
2026-04-24 11:57 35.39648 27.29021 35968 ft 482 kts 326°
2026-04-24 11:57 35.45630 27.25277 35958 ft 483 kts 326°
2026-04-24 11:58 35.51612 27.21526 35955 ft 483 kts 326°
2026-04-24 11:58 35.57597 27.17768 35944 ft 483 kts 326°
2026-04-24 11:59 35.63579 27.14004 35947 ft 483 kts 326°
2026-04-24 11:59 35.69570 27.10229 35969 ft 484 kts 326°
2026-04-24 12:00 35.75520 27.06474 35956 ft 484 kts 326°
2026-04-24 12:00 35.81500 27.02693 35954 ft 483 kts 326°
2026-04-24 12:01 35.87403 26.98955 35955 ft 482 kts 326°
2026-04-24 12:01 35.93373 26.95167 35952 ft 482 kts 326°
2026-04-24 12:02 35.99334 26.91379 35957 ft 482 kts 326°
2026-04-24 12:02 36.05289 26.87588 35953 ft 481 kts 326°
2026-04-24 12:03 36.11242 26.83792 35961 ft 481 kts 326°
2026-04-24 12:03 36.17193 26.79991 35953 ft 481 kts 326°
2026-04-24 12:04 36.23143 26.76183 35967 ft 481 kts 326°
2026-04-24 12:04 36.29092 26.72370 35947 ft 481 kts 326°
2026-04-24 12:05 36.35036 26.68553 35948 ft 481 kts 326°
2026-04-24 12:05 36.40976 26.64734 35966 ft 480 kts 326°
2026-04-24 12:06 36.46911 26.60908 35969 ft 481 kts 326°
2026-04-24 12:06 36.52844 26.57079 35961 ft 481 kts 326°
2026-04-24 12:07 36.58775 26.53245 35969 ft 480 kts 326°
2026-04-24 12:07 36.64703 26.49405 35964 ft 480 kts 326°
2026-04-24 12:08 36.70625 26.45563 35958 ft 480 kts 326°
2026-04-24 12:08 36.76541 26.41718 35966 ft 479 kts 326°
2026-04-24 12:09 36.82409 26.37897 35962 ft 479 kts 326°
2026-04-24 12:09 36.88315 26.34045 35961 ft 479 kts 326°
2026-04-24 12:10 36.94215 26.30190 35961 ft 478 kts 326°
2026-04-24 12:11 37.03052 26.24402 35976 ft 479 kts 326°
2026-04-24 12:11 37.08954 26.20528 35966 ft 479 kts 326°
2026-04-24 12:12 37.14851 26.16652 35959 ft 479 kts 326°
2026-04-24 12:12 37.20750 26.12767 35965 ft 479 kts 326°
2026-04-24 12:13 37.26642 26.08879 35978 ft 479 kts 327°
2026-04-24 12:13 37.32537 26.04982 35965 ft 479 kts 327°
2026-04-24 12:14 37.38432 26.01078 35972 ft 479 kts 327°
2026-04-24 12:14 37.44218 25.97240 35972 ft 479 kts 327°
2026-04-24 12:15 37.50111 25.93323 35981 ft 479 kts 327°
2026-04-24 12:15 37.56004 25.89399 35982 ft 479 kts 328°
2026-04-24 12:16 37.62017 25.85725 35982 ft 482 kts 333°
2026-04-24 12:16 37.68187 25.82535 35978 ft 483 kts 334°
2026-04-24 12:17 37.74417 25.79355 35981 ft 483 kts 334°
2026-04-24 12:17 37.80643 25.76136 35979 ft 483 kts 333°
2026-04-24 12:18 37.86855 25.72893 35979 ft 483 kts 333°
2026-04-24 12:18 37.92020 25.70186 35980 ft 483 kts 333°
2026-04-24 12:19 37.98236 25.66922 35986 ft 483 kts 333°
2026-04-24 12:19 38.04430 25.63664 36000 ft 483 kts 335°
2026-04-24 12:20 38.10630 25.60399 35981 ft 482 kts 335°
2026-04-24 12:20 38.16819 25.57135 35985 ft 481 kts 335°
2026-04-24 12:21 38.22988 25.53876 35995 ft 480 kts 335°
2026-04-24 12:21 38.29145 25.50614 35995 ft 479 kts 335°
2026-04-24 12:22 38.35293 25.47354 35993 ft 478 kts 335°
2026-04-24 12:22 38.41433 25.44091 35991 ft 478 kts 335°
2026-04-24 12:23 38.47572 25.40822 35997 ft 478 kts 335°
2026-04-24 12:23 38.53707 25.37549 35998 ft 478 kts 336°
2026-04-24 12:24 38.59843 25.34269 36003 ft 478 kts 336°
2026-04-24 12:24 38.65979 25.30984 36004 ft 478 kts 337°
2026-04-24 12:25 38.72110 25.27696 36002 ft 478 kts 337°
2026-04-24 12:25 38.78231 25.24405 36016 ft 477 kts 338°
2026-04-24 12:26 38.84344 25.21115 36009 ft 476 kts 338°
2026-04-24 12:26 38.90451 25.17821 36011 ft 476 kts 338°
2026-04-24 12:27 38.96546 25.14527 36010 ft 475 kts 338°
2026-04-24 12:27 39.02625 25.11236 36016 ft 475 kts 338°
2026-04-24 12:28 39.08713 25.07934 36019 ft 474 kts 338°
2026-04-24 12:28 39.14753 25.04651 36020 ft 474 kts 338°
2026-04-24 12:29 39.20832 25.01342 36021 ft 474 kts 338°
2026-04-24 12:29 39.26849 24.98059 36028 ft 474 kts 338°
2026-04-24 12:30 39.32929 24.94736 36012 ft 474 kts 338°
2026-04-24 12:30 39.39007 24.91408 36010 ft 474 kts 338°
2026-04-24 12:31 39.45082 24.88075 36026 ft 474 kts 338°
2026-04-24 12:31 39.51157 24.84736 36008 ft 474 kts 338°
2026-04-24 12:32 39.57224 24.81395 36009 ft 474 kts 338°
2026-04-24 12:32 39.63282 24.78053 36011 ft 473 kts 338°
2026-04-24 12:33 39.69340 24.74704 36024 ft 473 kts 338°
2026-04-24 12:33 39.75388 24.71354 36020 ft 472 kts 338°
2026-04-24 12:34 39.81434 24.67999 36007 ft 472 kts 338°
2026-04-24 12:34 39.87473 24.64642 36023 ft 472 kts 338°
2026-04-24 12:35 39.93512 24.61277 36026 ft 472 kts 338°
2026-04-24 12:35 39.99550 24.57907 36009 ft 472 kts 338°
2026-04-24 12:36 40.05580 24.54535 36015 ft 472 kts 338°
2026-04-24 12:36 40.11615 24.51154 36016 ft 472 kts 338°
2026-04-24 12:37 40.17647 24.47768 35997 ft 472 kts 338°
2026-04-24 12:37 40.23683 24.44373 36011 ft 472 kts 338°
2026-04-24 12:38 40.29717 24.40972 36013 ft 472 kts 338°
2026-04-24 12:38 40.35755 24.37562 36005 ft 472 kts 338°
2026-04-24 12:39 40.47815 24.30732 36004 ft 472 kts 338°
2026-04-24 12:40 40.53799 24.27334 36005 ft 472 kts 338°
2026-04-24 12:40 40.59825 24.23905 35997 ft 471 kts 338°
2026-04-24 12:41 40.65840 24.20474 35999 ft 471 kts 338°
2026-04-24 12:41 40.71850 24.17040 35996 ft 471 kts 338°
2026-04-24 12:42 40.77854 24.13603 35996 ft 470 kts 338°
2026-04-24 12:42 40.83857 24.10159 35990 ft 470 kts 338°
2026-04-24 12:43 40.89850 24.06715 35988 ft 470 kts 339°
2026-04-24 12:43 40.95838 24.03266 35991 ft 469 kts 339°
2026-04-24 12:44 41.01734 23.99864 35981 ft 468 kts 339°
2026-04-24 12:44 41.07700 23.96414 35983 ft 468 kts 339°
2026-04-24 12:45 41.13659 23.92962 35973 ft 467 kts 339°
2026-04-24 12:45 41.19615 23.89505 35972 ft 467 kts 339°
2026-04-24 12:46 41.25564 23.86044 35970 ft 467 kts 339°
2026-04-24 12:46 41.31509 23.82579 35965 ft 466 kts 339°
2026-04-24 12:47 41.37463 23.79187 35970 ft 464 kts 343°
2026-04-24 12:47 41.43666 23.76984 35968 ft 460 kts 353°
2026-04-24 12:48 41.50010 23.75995 35964 ft 459 kts 356°
2026-04-24 12:48 41.56367 23.75164 35966 ft 459 kts 357°
2026-04-24 12:49 41.62725 23.74300 35958 ft 459 kts 357°
2026-04-24 12:49 41.69078 23.73403 35964 ft 459 kts 357°
2026-04-24 12:50 41.75422 23.72494 35967 ft 458 kts 357°
2026-04-24 12:50 41.81706 23.71595 35962 ft 457 kts 357°
2026-04-24 12:51 41.88027 23.70689 35970 ft 457 kts 357°
2026-04-24 12:51 41.94342 23.69782 35963 ft 456 kts 357°
2026-04-24 12:52 42.00634 23.68877 35969 ft 455 kts 357°
2026-04-24 12:52 42.06927 23.67970 35969 ft 455 kts 357°
2026-04-24 12:53 42.13217 23.67061 35964 ft 454 kts 357°
2026-04-24 12:53 42.19498 23.66153 35968 ft 454 kts 357°
2026-04-24 12:54 42.25765 23.65244 35975 ft 453 kts 357°
2026-04-24 12:54 42.32017 23.64201 35973 ft 454 kts 354°
2026-04-24 12:55 42.38231 23.62653 35964 ft 454 kts 353°
2026-04-24 12:55 42.44431 23.61034 35984 ft 454 kts 353°
2026-04-24 12:56 42.50635 23.59433 35978 ft 454 kts 353°
2026-04-24 12:56 42.56837 23.57851 35980 ft 453 kts 353°
2026-04-24 12:57 42.63040 23.56273 35975 ft 453 kts 353°
2026-04-24 12:57 42.69237 23.54692 35959 ft 453 kts 353°
2026-04-24 12:58 42.75417 23.53113 35978 ft 452 kts 353°
2026-04-24 12:58 42.81590 23.51532 35975 ft 451 kts 353°
2026-04-24 12:59 42.87751 23.49950 35969 ft 451 kts 353°
2026-04-24 12:59 42.93867 23.48377 35980 ft 450 kts 353°
2026-04-24 13:00 43.00010 23.46794 35974 ft 450 kts 353°
2026-04-24 13:00 43.06160 23.45205 35963 ft 450 kts 353°
2026-04-24 13:01 43.12303 23.43615 35972 ft 449 kts 353°
2026-04-24 13:01 43.18444 23.42023 35967 ft 449 kts 353°
2026-04-24 13:02 43.24574 23.40429 35964 ft 448 kts 353°
2026-04-24 13:02 43.30694 23.38835 35972 ft 447 kts 353°
2026-04-24 13:03 43.36809 23.37240 35953 ft 447 kts 353°
2026-04-24 13:03 43.42916 23.35643 35958 ft 446 kts 353°
2026-04-24 13:04 43.49018 23.34045 35957 ft 446 kts 353°
2026-04-24 13:04 43.55116 23.32444 35970 ft 446 kts 353°
2026-04-24 13:05 43.61198 23.30844 35956 ft 445 kts 353°
2026-04-24 13:05 43.67269 23.29243 35955 ft 444 kts 353°
2026-04-24 13:06 43.72307 23.27912 35947 ft 443 kts 353°
2026-04-24 13:06 43.78354 23.26312 35957 ft 442 kts 353°
2026-04-24 13:07 43.84380 23.24628 35952 ft 443 kts 349°
2026-04-24 13:07 43.90336 23.22389 35957 ft 444 kts 348°
2026-04-24 13:08 43.96276 23.20067 35949 ft 444 kts 348°
2026-04-24 13:08 44.02213 23.17758 35951 ft 444 kts 348°
2026-04-24 13:09 44.11142 23.14311 35944 ft 445 kts 348°
2026-04-24 13:09 44.17114 23.12007 35952 ft 445 kts 348°
2026-04-24 13:10 44.23091 23.09695 35957 ft 446 kts 348°
2026-04-24 13:10 44.29081 23.07372 35951 ft 447 kts 348°
2026-04-24 13:11 44.35079 23.05042 35947 ft 448 kts 348°
2026-04-24 13:11 44.41076 23.02705 35943 ft 448 kts 348°
2026-04-24 13:12 44.47080 23.00361 35940 ft 448 kts 348°
2026-04-24 13:12 44.52975 22.98055 35942 ft 448 kts 348°
2026-04-24 13:13 44.58990 22.95698 35942 ft 449 kts 348°
2026-04-24 13:13 44.65000 22.93336 35947 ft 448 kts 347°
2026-04-24 13:14 44.70999 22.90975 35945 ft 447 kts 347°
2026-04-24 13:14 44.76985 22.88613 35943 ft 446 kts 347°
2026-04-24 13:15 44.82953 22.86254 35928 ft 445 kts 347°
2026-04-24 13:15 44.88909 22.83894 35929 ft 444 kts 347°
2026-04-24 13:16 44.94850 22.81535 35938 ft 443 kts 347°
2026-04-24 13:16 45.00770 22.79180 35959 ft 442 kts 347°
2026-04-24 13:17 45.06700 22.76815 35958 ft 443 kts 347°
2026-04-24 13:17 45.12636 22.74443 35952 ft 444 kts 347°
2026-04-24 13:18 45.18583 22.72061 35973 ft 445 kts 347°
2026-04-24 13:18 45.24518 22.69680 35975 ft 447 kts 347°
2026-04-24 13:19 45.30504 22.67272 35983 ft 447 kts 347°
2026-04-24 13:19 45.36482 22.64861 35986 ft 446 kts 347°
2026-04-24 13:20 45.42434 22.62455 35971 ft 444 kts 347°
2026-04-24 13:20 45.48367 22.60053 35992 ft 443 kts 347°
2026-04-24 13:21 45.54295 22.57648 36004 ft 443 kts 347°
2026-04-24 13:21 45.60223 22.55232 36004 ft 443 kts 347°
2026-04-24 13:22 45.66150 22.52812 35996 ft 443 kts 347°
2026-04-24 13:22 45.72069 22.50389 35994 ft 442 kts 347°
2026-04-24 13:23 45.77979 22.47964 36011 ft 442 kts 347°
2026-04-24 13:23 45.83883 22.45537 36008 ft 441 kts 347°
2026-04-24 13:24 45.89786 22.43106 36004 ft 441 kts 347°
2026-04-24 13:24 45.95683 22.40670 36005 ft 441 kts 347°
2026-04-24 13:25 46.01534 22.38249 36014 ft 441 kts 347°
2026-04-24 13:25 46.07433 22.35803 35990 ft 441 kts 347°
2026-04-24 13:26 46.13326 22.33353 36007 ft 441 kts 347°
2026-04-24 13:26 46.19214 22.30900 36011 ft 441 kts 347°
2026-04-24 13:27 46.25103 22.28441 36015 ft 441 kts 346°
2026-04-24 13:27 46.30992 22.25976 36009 ft 440 kts 346°
2026-04-24 13:28 46.36874 22.23509 36014 ft 440 kts 346°
2026-04-24 13:28 46.42751 22.21038 35996 ft 439 kts 346°
2026-04-24 13:29 46.48617 22.18550 36015 ft 439 kts 346°
2026-04-24 13:29 46.54457 22.15962 36009 ft 439 kts 345°
2026-04-24 13:30 46.60287 22.13351 36017 ft 438 kts 345°
2026-04-24 13:30 46.66121 22.10745 36015 ft 439 kts 346°
2026-04-24 13:31 46.71959 22.08138 36009 ft 439 kts 346°
2026-04-24 13:31 46.77753 22.05546 35998 ft 438 kts 346°
2026-04-24 13:32 46.83581 22.02932 36013 ft 438 kts 346°
2026-04-24 13:32 46.89408 22.00314 36019 ft 438 kts 345°
2026-04-24 13:33 46.95184 21.97713 36032 ft 439 kts 345°
2026-04-24 13:33 47.01010 21.95082 36020 ft 439 kts 345°
2026-04-24 13:34 47.06840 21.92444 36020 ft 438 kts 345°
2026-04-24 13:34 47.12662 21.89803 35983 ft 437 kts 345°
2026-04-24 13:35 47.18472 21.87162 36005 ft 437 kts 345°
2026-04-24 13:35 47.24284 21.84573 36001 ft 436 kts 346°
2026-04-24 13:36 47.30112 21.82123 35994 ft 435 kts 346°
2026-04-24 13:36 47.35934 21.79682 35994 ft 435 kts 346°
2026-04-24 13:37 47.41753 21.77220 35993 ft 435 kts 346°
2026-04-24 13:37 47.47563 21.74746 35975 ft 435 kts 346°
2026-04-24 13:38 47.53380 21.72261 35991 ft 434 kts 346°
2026-04-24 13:38 47.59184 21.69775 35995 ft 435 kts 346°
2026-04-24 13:39 47.64995 21.67281 35993 ft 435 kts 346°
2026-04-24 13:39 47.70809 21.64781 35995 ft 435 kts 345°
2026-04-24 13:40 47.76621 21.62275 35989 ft 435 kts 345°
2026-04-24 13:40 47.82425 21.59766 35993 ft 434 kts 345°
2026-04-24 13:41 47.88227 21.57253 35987 ft 434 kts 345°
2026-04-24 13:41 47.94023 21.54737 35991 ft 434 kts 345°
2026-04-24 13:42 47.99825 21.52212 35989 ft 434 kts 345°
2026-04-24 13:42 48.05616 21.49686 35989 ft 435 kts 345°
2026-04-24 13:43 48.11421 21.47148 35993 ft 435 kts 345°
2026-04-24 13:43 48.17229 21.44602 36005 ft 435 kts 345°
2026-04-24 13:44 48.23037 21.42051 35990 ft 435 kts 345°
2026-04-24 13:44 48.28838 21.39496 35984 ft 434 kts 345°
2026-04-24 13:45 48.34632 21.36938 35990 ft 434 kts 345°
2026-04-24 13:45 48.40421 21.34377 35990 ft 434 kts 345°
2026-04-24 13:46 48.46208 21.31810 35994 ft 433 kts 345°
2026-04-24 13:46 48.51977 21.29246 35990 ft 432 kts 345°
2026-04-24 13:47 48.57737 21.26692 35991 ft 431 kts 345°
2026-04-24 13:47 48.63480 21.24151 35988 ft 429 kts 345°
2026-04-24 13:48 48.69212 21.21608 36002 ft 429 kts 344°
2026-04-24 13:48 48.74946 21.19056 35988 ft 429 kts 344°
2026-04-24 13:49 48.80676 21.16498 35988 ft 429 kts 344°
2026-04-24 13:49 48.86368 21.13951 35996 ft 430 kts 344°
2026-04-24 13:50 48.92106 21.11378 36017 ft 430 kts 344°
2026-04-24 13:50 48.97888 21.08779 35971 ft 431 kts 344°
2026-04-24 13:51 49.03626 21.06194 35984 ft 430 kts 344°
2026-04-24 13:51 49.09317 21.03623 35987 ft 430 kts 344°
2026-04-24 13:52 49.15050 21.01026 35994 ft 429 kts 344°
2026-04-24 13:52 49.20714 20.98456 35988 ft 429 kts 344°
2026-04-24 13:53 49.26428 20.95856 36003 ft 428 kts 344°
2026-04-24 13:53 49.32137 20.93252 35989 ft 428 kts 344°
2026-04-24 13:54 49.36878 20.91085 35983 ft 428 kts 344°
2026-04-24 13:54 49.42577 20.88474 36000 ft 427 kts 344°
2026-04-24 13:55 49.48277 20.85857 36007 ft 428 kts 344°
2026-04-24 13:55 49.53983 20.83230 36005 ft 428 kts 343°
2026-04-24 13:56 49.59688 20.80598 36003 ft 428 kts 343°
2026-04-24 13:56 49.65390 20.77960 36011 ft 428 kts 343°
2026-04-24 13:57 49.71096 20.75314 36023 ft 428 kts 343°
2026-04-24 13:57 49.76792 20.72665 35996 ft 427 kts 343°
2026-04-24 13:58 49.82481 20.70014 36004 ft 427 kts 343°
2026-04-24 13:58 49.88166 20.67358 36007 ft 426 kts 343°
2026-04-24 13:59 49.93843 20.64699 36010 ft 426 kts 343°
2026-04-24 13:59 49.99524 20.62032 36012 ft 427 kts 343°
2026-04-24 14:00 50.05199 20.59369 36007 ft 426 kts 344°
2026-04-24 14:00 50.11037 20.57796 36010 ft 427 kts 353°
2026-04-24 14:01 50.16979 20.57574 35996 ft 428 kts
2026-04-24 14:01 50.22925 20.58215 36011 ft 429 kts
2026-04-24 14:02 50.28886 20.58898 35998 ft 429 kts
2026-04-24 14:02 50.34846 20.59537 35974 ft 428 kts
2026-04-24 14:03 50.37809 20.59846 35736 ft 427 kts
2026-04-24 14:03 50.40780 20.60153 35360 ft 429 kts
2026-04-24 14:03 50.43763 20.60461 34950 ft 431 kts
2026-04-24 14:03 50.46768 20.60773 34507 ft 434 kts
2026-04-24 14:04 50.49791 20.61087 34087 ft 436 kts
2026-04-24 14:04 50.52824 20.61404 33617 ft 438 kts
2026-04-24 14:04 50.55873 20.61723 33097 ft 440 kts
2026-04-24 14:04 50.58936 20.62043 32600 ft 442 kts
2026-04-24 14:05 50.62006 20.62362 32071 ft 444 kts
2026-04-24 14:05 50.65097 20.62684 31528 ft 446 kts
2026-04-24 14:05 50.68202 20.63007 31017 ft 448 kts
2026-04-24 14:05 50.71308 20.63333 30624 ft 446 kts
2026-04-24 14:06 50.74402 20.63658 29888 ft 445 kts
2026-04-24 14:06 50.77472 20.63982 29118 ft 440 kts
2026-04-24 14:06 50.80507 20.64302 28411 ft 434 kts
2026-04-24 14:06 50.83501 20.64618 27735 ft 429 kts
2026-04-24 14:07 50.86460 20.64930 27053 ft 424 kts
2026-04-24 14:07 50.89395 20.65239 26388 ft 421 kts
2026-04-24 14:07 50.92305 20.65546 25723 ft 417 kts
2026-04-24 14:07 50.95191 20.65850 25089 ft 414 kts
2026-04-24 14:08 50.98057 20.66153 24453 ft 412 kts
2026-04-24 14:08 51.00900 20.66453 23821 ft 410 kts
2026-04-24 14:08 51.03740 20.66753 23119 ft 409 kts
2026-04-24 14:08 51.06570 20.67054 22434 ft 406 kts
2026-04-24 14:09 51.09376 20.67352 21783 ft 403 kts
2026-04-24 14:09 51.12164 20.67650 21166 ft 400 kts
2026-04-24 14:09 51.14931 20.67944 20555 ft 397 kts
2026-04-24 14:09 51.17678 20.68237 19969 ft 395 kts
2026-04-24 14:10 51.20410 20.68529 19453 ft 391 kts
2026-04-24 14:10 51.23074 20.68816 19312 ft 377 kts
2026-04-24 14:10 51.25654 20.69094 19064 ft 368 kts
2026-04-24 14:10 51.28168 20.69387 18490 ft 369 kts
2026-04-24 14:11 51.30676 20.70294 17842 ft 372 kts 15°
2026-04-24 14:11 51.33126 20.71669 17208 ft 373 kts 17°
2026-04-24 14:11 51.37972 20.74432 15965 ft 373 kts 17°
2026-04-24 14:12 51.40426 20.75784 15363 ft 373 kts 16°
2026-04-24 14:12 51.42884 20.77114 14762 ft 373 kts 16°
2026-04-24 14:12 51.45343 20.78434 14169 ft 372 kts 17°
2026-04-24 14:12 51.47794 20.79750 13565 ft 372 kts 17°
2026-04-24 14:13 51.50246 20.81068 12913 ft 371 kts 17°
2026-04-24 14:13 51.52641 20.82360 12251 ft 354 kts 17°
2026-04-24 14:13 51.54921 20.83593 11604 ft 338 kts 17°
2026-04-24 14:13 51.57111 20.84777 10978 ft 325 kts 16°
2026-04-24 14:14 51.59215 20.85915 10362 ft 315 kts 16°
2026-04-24 14:14 51.61267 20.87023 9758 ft 308 kts 16°
2026-04-24 14:14 51.65421 20.89267 8488 ft 321 kts 16°
2026-04-24 14:15 51.67557 20.90426 7853 ft 326 kts 16°
2026-04-24 14:15 51.69719 20.91589 7236 ft 329 kts 15°
2026-04-24 14:15 51.71907 20.92733 6632 ft 332 kts 15°
2026-04-24 14:15 51.74112 20.93882 6051 ft 333 kts 15°
2026-04-24 14:16 51.76275 20.95016 5948 ft 316 kts 15°
2026-04-24 14:16 51.78323 20.96152 5822 ft 313 kts 21°
2026-04-24 14:16 51.80172 20.98224 5837 ft 337 kts 44°
2026-04-24 14:17 51.81923 21.05363 5741 ft 341 kts 91°
2026-04-24 14:17 51.81336 21.08872 5488 ft 312 kts 119°
2026-04-24 14:17 51.78389 21.12977 5109 ft 260 kts 162°
2026-04-24 14:18 51.76730 21.13755 4914 ft 239 kts 171°
2026-04-24 14:18 51.75127 21.14048 4563 ft 227 kts 188°
2026-04-24 14:18 51.73638 21.13417 4168 ft 220 kts 217°
2026-04-24 14:18 51.72485 21.11823 4043 ft 222 kts 231°
2026-04-24 14:19 51.71828 21.10550 3996 ft 224 kts 238°
2026-04-24 14:19 51.70885 21.07695 3946 ft 207 kts 256°
2026-04-24 14:19 51.70629 21.05768 3940 ft 197 kts 268°
2026-04-24 14:19 51.70671 21.03589 3935 ft 195 kts 285°
2026-04-24 14:20 51.71402 21.01599 3999 ft 227 kts 319°
2026-04-24 14:20 51.72877 21.00553 3966 ft 240 kts 353°
2026-04-24 14:20 51.74488 21.01075 3973 ft 232 kts 22°
2026-04-24 14:20 51.75812 21.02382 3948 ft 216 kts 29°
2026-04-24 14:21 51.77025 21.03728 3941 ft 210 kts 30°
2026-04-24 14:21 51.78224 21.05058 3946 ft 206 kts 30°
2026-04-24 14:21 51.79380 21.06332 3935 ft 196 kts 29°
2026-04-24 14:21 51.80498 21.07547 3948 ft 193 kts 29°
2026-04-24 14:22 51.81617 21.08751 3956 ft 192 kts 28°
2026-04-24 14:22 51.82728 21.09939 3955 ft 191 kts 28°
2026-04-24 14:22 51.84925 21.12271 3957 ft 188 kts 29°
2026-04-24 14:23 51.86006 21.13416 3955 ft 188 kts 29°
2026-04-24 14:23 51.87113 21.14587 3949 ft 187 kts 29°
2026-04-24 14:23 51.88202 21.15739 3958 ft 187 kts 29°
2026-04-24 14:23 51.89278 21.16878 3962 ft 187 kts 28°
2026-04-24 14:24 51.90457 21.17602 3953 ft 179 kts
2026-04-24 14:24 51.91713 21.17728 3969 ft 182 kts 358°
2026-04-24 14:24 51.92880 21.17321 3954 ft 165 kts 328°
2026-04-24 14:24 51.93855 21.16434 3959 ft 159 kts 330°
2026-04-24 14:25 51.94513 21.15879 3946 ft 158 kts 330°
2026-04-24 14:25 51.95808 21.14772 3956 ft 160 kts 330°
2026-04-24 14:25 51.96802 21.13915 3965 ft 163 kts 330°
2026-04-24 14:25 51.97805 21.13048 3968 ft 164 kts 329°
2026-04-24 14:26 51.98816 21.12170 3935 ft 166 kts 329°
2026-04-24 14:26 51.99821 21.11296 3697 ft 158 kts 329°
2026-04-24 14:26 52.00746 21.10495 3501 ft 143 kts 329°
2026-04-24 14:26 52.01587 21.09767 3330 ft 136 kts 330°
2026-04-24 14:27 52.02424 21.09039 3172 ft 137 kts 330°
2026-04-24 14:27 52.03253 21.08321 3034 ft 132 kts 329°
2026-04-24 14:27 52.04065 21.07613 2909 ft 134 kts 329°
2026-04-24 14:27 52.04894 21.06893 2730 ft 136 kts 329°
2026-04-24 14:28 52.05720 21.06173 2541 ft 134 kts 329°
2026-04-24 14:28 52.06538 21.05461 2366 ft 134 kts 329°
2026-04-24 14:28 52.07363 21.04744 2182 ft 135 kts 329°
2026-04-24 14:28 52.08193 21.04020 2001 ft 134 kts 329°
2026-04-24 14:29 52.09015 21.03305 1825 ft 133 kts 329°
2026-04-24 14:29 52.09830 21.02593 1632 ft 134 kts 329°
2026-04-24 14:29 52.10655 21.01864 1417 ft 134 kts 329°
2026-04-24 14:29 52.11475 21.01154 1228 ft 134 kts 331°
2026-04-24 14:30 52.12023 21.00700 1096 ft 134 kts 332°
2026-04-24 14:30 52.13114 20.99753 885 ft 134 kts 330°
2026-04-24 14:30 52.13937 20.99025 774 ft 134 kts 331°
2026-04-24 14:30 52.14763 20.98310 572 ft 136 kts 330°
2026-04-24 14:31 52.15565 20.97604 366 ft 122 kts 331°
2026-04-24 14:31 52.16136 20.97106 364 ft 49 kts 334°
2026-04-24 14:31 52.16231 20.97023 364 ft 15 kts 330°
2026-04-24 14:31 52.16415 20.96856 363 ft 44 kts 330°
2026-04-24 14:32 52.16694 20.96614 365 ft 44 kts 330°
2026-04-24 14:32 52.16916 20.96514 363 ft 0 kts 357°
2026-04-24 14:32 52.16924 20.96514 363 ft 3 kts 358°
2026-04-24 14:32 52.16957 20.96514 364 ft 6 kts
2026-04-24 14:33 52.17012 20.96517 364 ft 10 kts
2026-04-24 14:33 52.17080 20.96562 364 ft 12 kts 38°
2026-04-24 14:33 52.17164 20.96583 363 ft 14 kts 344°
2026-04-24 14:33 52.17259 20.96512 366 ft 16 kts 332°
2026-04-24 14:34 52.17364 20.96418 358 ft 18 kts 333°
2026-04-24 14:34 52.17464 20.96503 365 ft 19 kts 58°
2026-04-24 14:34 52.17515 20.96606 363 ft 4 kts 66°
2026-04-24 14:34 52.17517 20.96659 361 ft 5 kts 106°
2026-04-24 14:35 52.17503 20.96688 363 ft 3 kts 131°
2026-04-24 14:35 52.17489 20.96712 363 ft 1 kts 134°
2026-04-24 14:35 52.17476 20.96734 364 ft 3 kts 135°
2026-04-24 14:35 52.17471 20.96742 364 ft 0 kts 136°